Regional Weather Roundup
Issued by NWS

Home | Current Version | Previous Version | Graphics & Text | Print | Product List | Glossary On
Versions: 1 2 3 4 5 6 7 8 9 10 11 12 13 14 15 16 17 18 19 20 21 22 23 24 25 26 27 28 29 30 31 32 33 34 35 36 37 38 39 40 41 42 43 44 45 46 47 48 49 50
000
ASUS43 KFSD 180002
RWRSD

WEATHER ROUNDUP FOR SOUTH DAKOTA
NATIONAL WEATHER SERVICE SIOUX FALLS SD
600 PM CST SUN DEC 17 2017

NOTE: "FAIR" INDICATES FEW OR NO CLOUDS BELOW 12,000 FEET WITH NO
SIGNIFICANT WEATHER AND/OR OBSTRUCTIONS TO VISIBILITY.


SDZ001>005-009-010-012>017-180100-
NORTHWEST AND NORTH CENTRAL SOUTH DAKOTA

CITY           SKY/WX    TMP DP  RH WIND       PRES   REMARKS
BUFFALO          N/A     32  23  69 W7        29.73R WCI  26
FAITH            N/A     30  24  78 SW8       29.81S WCI  22
MOBRIDGE       CLEAR     31  24  75 S7        29.82F WCI  24
$$

SDZ012>016-024>037-041>051-057-063-072>074-180100-
SOUTHWEST AND SOUTH CENTRAL SOUTH DAKOTA

CITY           SKY/WX    TMP DP  RH WIND       PRES   REMARKS
RAPID CTY ARPT CLEAR     30  22  72 NW12      29.81S WCI  20
PIERRE         CLOUDY    36  30  79 S6        29.87S
CUSTER         CLEAR     25  18  74 W13G20    29.76F WCI  14
ELLSWORTH AFB  CLEAR     31  22  69 NW6       29.80S WCI  25
PHILIP         CLEAR     32  26  78 S5        29.85R WCI  27
PINE RIDGE     CLEAR     29  23  78 E5        29.83S WCI  24
SPEARFISH      FAIR      32  21  64 W9        29.81R WCI  24
WINNER         CLOUDY    41  30  65 S8        29.90F
$$

SDZ004>011-016>023-039-040-180100-
NORTHEAST SOUTH DAKOTA

CITY           SKY/WX    TMP DP  RH WIND       PRES   REMARKS
ABERDEEN       CLOUDY    32  27  81 S7        29.89F WCI  26
WATERTOWN      CLOUDY    31  31 100 SW5       29.90S WCI  26
BROOKINGS      CLOUDY    35  29  78 SW3       29.92S
SISSETON         N/A     33  31  92 SE8       29.89F WCI  26
$$

SDZ017-020-022-023-036>040-048>070-180100-
SOUTHEAST SOUTH DAKOTA

CITY           SKY/WX    TMP DP  RH WIND       PRES   REMARKS
SIOUX FALLS    PTCLDY    30  27  88 SW3       29.95R
HURON          CLOUDY    38  32  79 MISG      29.92R
CHAMBERLAIN    CLOUDY    37  32  84 SE6       29.91S
MITCHELL       CLOUDY    38  29  70 S6        29.94S
YANKTON        CLEAR     34  27  75 SW5       29.97R WCI  30
$$

ABBREVIATIONS USED IN REMARKS
   TC - TEMPERATURE IN CELSIUS
  WCI - WIND CHILL INDEX
   HX - HEAT INDEX
  VSB - VISIBILITY





USA.gov is the U.S. government's official web portal to all federal, state and local government web resources and services.